Milwaukee, WI

9:37 PM CDT on October 18, 2018 (GMT -0500)
Gen Mitchell International

Weather History for KMKE - April, 2018

Change the Weather History Date:

Monday, April 16, 2018

  Actual Average Record
Temperature  
Mean Temperature 31 °F 46 °F  
Max Temperature 35 °F 54 °F 86 °F (2002)
Min Temperature 27 °F 38 °F 12 °F (1875)
Degree Days  
Heating Degree Days 34 19  
Month to date heating degree days 488 353  
Since 1 July heating degree days 6024 6262  
Cooling Degree Days 0 0  
Month to date cooling degree days 0 0  
Year to date cooling degree days 0 0  
Moisture  
Dew Point 24 °F    
Average Humidity 78    
Maximum Humidity 92    
Minimum Humidity 64    
Precipitation  
Precipitation 0.04 in 0.13 in 1.23 in (1921)
Month to date precipitation 2.49 1.94  
Year to date precipitation 7.97 7.62  
Snow  
Snow 0.90 in 0.10 in 14.00 in (1921)
Month to date snowfall 6.8 1.5  
Since 1 July snowfall 43.5 46.3  
Snow Depth 4.00 in    
Sea Level Pressure  
Sea Level Pressure 29.81 in    
Wind  
Wind Speed 13 mph (WNW)    
Max Wind Speed 21 mph    
Max Gust Speed 29 mph    
Visibility 6 miles    
Events Snow    
T = Trace of Precipitation, MM = Missing Value Source: NWS Daily Summary

Daily Weather History Graph

Daily Weather History Graph

Search for Another Location

Airport or City:

Astronomy

Apr. 16, 2018 Rise Set
Actual Time 6:08 AM CDT 7:35 PM CDT
Civil Twilight 5:38 AM CDT 8:04 PM CDT
Nautical Twilight 5:02 AM CDT 8:40 PM CDT
Astronomical Twilight 4:25 AM CDT 9:18 PM CDT
Moon 6:51 AM CDT (4/16) 8:23 PM CDT (4/16)
Length of Visible Light 14h 26m
Length of Day
13h 27m
New Moon, 0% of the Moon is Illuminated
Apr 16
New Moon
Apr 22
First Quarter
Apr 29
Full
May 7
Last Quarter
May 15
New

Hourly Weather History & Observations

Time (CDT) Temp. Windchill Dew Point Humidity Pressure Visibility Wind Dir Wind Speed Gust Speed Precip Events Conditions
12:52 AM 28.0 °F 18.1 °F 26.1 °F 92% 29.77 in 3.0 mi WNW 11.5 mph 18.4 mph 0.01 in Snow Light Snow
1:52 AM 28.0 °F 17.0 °F 25.0 °F 88% 29.75 in 3.0 mi NW 13.8 mph 23.0 mph 0.00 in Snow Light Snow
2:14 AM 28.0 °F 17.5 °F 25.0 °F 88% 29.72 in 5.0 mi WNW 12.7 mph - 0.00 in Snow Light Snow
2:52 AM 28.0 °F 17.5 °F 25.0 °F 88% 29.75 in 4.0 mi WNW 12.7 mph - 0.00 in Snow Light Snow
3:12 AM 28.0 °F 17.5 °F 25.0 °F 88% 29.72 in 4.0 mi NW 12.7 mph 21.9 mph 0.00 in Snow Light Snow
3:52 AM 28.0 °F 18.6 °F 25.0 °F 88% 29.75 in 4.0 mi NW 10.4 mph - 0.00 in Snow Light Snow
4:03 AM 28.0 °F 19.3 °F 25.0 °F 88% 29.73 in 5.0 mi WNW 9.2 mph 20.7 mph 0.00 in Snow Light Snow
4:52 AM 28.0 °F 18.6 °F 25.0 °F 88% 29.76 in 3.0 mi WNW 10.4 mph - 0.01 in Snow Light Snow
5:00 AM 27.0 °F 17.3 °F 24.1 °F 89% 29.73 in 2.0 mi WNW 10.4 mph - 0.00 in Snow Light Snow
5:16 AM 27.0 °F 18.7 °F 24.1 °F 89% 29.74 in 3.0 mi WNW 8.1 mph - 0.00 in Snow Light Snow
5:52 AM 27.0 °F 16.7 °F 24.1 °F 89% 29.76 in 5.0 mi WNW 11.5 mph - 0.01 in Snow Light Snow
6:52 AM 28.0 °F 18.1 °F 24.1 °F 85% 29.76 in 3.0 mi WNW 11.5 mph 20.7 mph 0.00 in Snow Light Snow
7:01 AM 28.0 °F 17.5 °F 25.0 °F 88% 29.73 in 2.0 mi WNW 12.7 mph - 0.00 in Snow Light Snow
7:42 AM 28.0 °F 17.5 °F 25.0 °F 88% 29.75 in 1.5 mi WNW 12.7 mph - 0.01 in Snow Light Snow
7:52 AM 28.0 °F 18.1 °F 25.0 °F 88% 29.78 in 1.5 mi WNW 11.5 mph - 0.01 in Snow Light Snow
8:12 AM 28.9 °F 19.8 °F 25.0 °F 85% 29.76 in 2.5 mi NW 10.4 mph - 0.00 in Snow Light Snow
8:38 AM 28.9 °F 18.2 °F 25.0 °F 85% 29.77 in 3.0 mi NW 13.8 mph - 0.00 in Snow Light Snow
8:52 AM 30.0 °F 21.1 °F 25.0 °F 82% 29.79 in 3.0 mi NW 10.4 mph 23.0 mph 0.00 in Snow Light Snow
9:16 AM 30.0 °F 19.1 °F 25.0 °F 82% 29.77 in 2.0 mi NW 15.0 mph - 0.00 in Snow Light Snow
9:52 AM 30.0 °F 20.0 °F 25.0 °F 82% 29.80 in 1.8 mi NW 12.7 mph 24.2 mph 0.01 in Snow Light Snow
10:08 AM 30.9 °F 21.2 °F 26.1 °F 82% 29.78 in 3.0 mi NW 12.7 mph - 0.00 in Snow Light Snow
10:52 AM 32.0 °F 21.2 °F 25.0 °F 75% 29.81 in 3.0 mi WNW 16.1 mph - 0.00 in Snow Light Snow
11:52 AM 32.0 °F 22.5 °F 25.0 °F 75% 29.83 in 9.0 mi NW 12.7 mph 24.2 mph 0.00 in   Overcast
12:52 PM 32.0 °F 20.8 °F 24.1 °F 73% 29.84 in 8.0 mi NW 17.3 mph 26.5 mph 0.00 in Snow Light Snow
1:52 PM 33.1 °F 23.4 °F 25.0 °F 72% 29.84 in 7.0 mi WNW 13.8 mph 23.0 mph 0.00 in Snow Light Snow
2:52 PM 33.1 °F 22.6 °F 24.1 °F 70% 29.85 in 9.0 mi WNW 16.1 mph 26.5 mph 0.00 in Snow Light Snow
3:52 PM 34.0 °F 24.6 °F 25.0 °F 70% 29.85 in 10.0 mi WNW 13.8 mph 23.0 mph 0.00 in   Overcast
4:32 PM 35.1 °F 26.9 °F 25.0 °F 67% 29.83 in 10.0 mi WNW 11.5 mph 23.0 mph N/A   Mostly Cloudy
4:52 PM 35.1 °F 26.4 °F 24.1 °F 64% 29.86 in 10.0 mi WNW 12.7 mph 23.0 mph N/A   Overcast
5:46 PM 33.8 °F 25.3 °F 24.8 °F 70% 29.84 in 10.0 mi WNW 11.5 mph 19.6 mph N/A   Overcast
5:52 PM 34.0 °F 25.0 °F 24.1 °F 67% 29.87 in 10.0 mi WNW 12.7 mph 19.6 mph N/A   Overcast
6:52 PM 34.0 °F 24.6 °F 23.0 °F 64% 29.88 in 10.0 mi WNW 13.8 mph 24.2 mph N/A   Overcast
7:12 PM 34.0 °F 24.6 °F 23.0 °F 64% 29.86 in 10.0 mi WNW 13.8 mph 21.9 mph N/A   Overcast
7:52 PM 33.1 °F 24.4 °F 24.1 °F 70% 29.88 in 10.0 mi WNW 11.5 mph 19.6 mph N/A   Overcast
8:29 PM 33.1 °F 24.9 °F 24.1 °F 70% 29.87 in 10.0 mi WNW 10.4 mph 20.7 mph 0.00 in Snow Light Snow
8:52 PM 32.0 °F 24.2 °F 25.0 °F 75% 29.90 in 8.0 mi WNW 9.2 mph 20.7 mph 0.00 in Snow Light Snow
9:16 PM 32.0 °F 22.5 °F 24.1 °F 73% 29.87 in 9.0 mi WNW 12.7 mph - 0.00 in Snow Light Snow
9:52 PM 30.9 °F 21.2 °F 24.1 °F 76% 29.90 in 9.0 mi WNW 12.7 mph - 0.00 in Snow Light Snow
10:52 PM 30.9 °F 19.4 °F 21.0 °F 67% 29.90 in 9.0 mi WNW 17.3 mph 26.5 mph 0.00 in Snow Light Snow
11:52 PM 30.9 °F 21.2 °F 21.0 °F 67% 29.88 in 10.0 mi WNW 12.7 mph 20.7 mph 0.00 in   Overcast